IRIDE-MS2-HEO-5

operational
NORAD ID: 64571 Int'l Des: 2025-135 Owner: ASI/ARGOT Country: I
LEOCIRCULARRETROGRADESSO

About IRIDE-MS2-HEO-5

Description loading...

Live Position

Loading 3D Globe...

Upcoming Passes

Altitude History

Altitude vs Time

uPlot chart will show altitude changes over time

Two-Line Element Set

1 64571U 25135AV 26062.17032161 .00002962 00000-0 28718-3 0 9994
2 64571 97.7593 177.7082 0001798 326.5014 33.6092 14.93444500 38067
Epoch: Mar 3, 2026 • Age: 22 hours

Current Status

Altitude 591.1 km
Velocity 7.57 km/s
Sub-Earth Point 32.78°N, 42.91°E
Launch Date Jun 23, 2025
Age 0.6 years
Type other

Technical Details

Classification Payload
Mass 65.00 kg
Dry Mass 65.00 kg
Total Mass 65.00 kg
Length 0.70 m
Diameter 0.50 m
Span 2.00 m
Shape Box+2 pan
Manufacturer ARGOT
Bus Type HAWK
Phase Status In Orbit
Owner/State ASI/ARGOT/I

Large Constellations

Loading constellations...